Location: B?lite?ti
(46.2833°N, 22.7333°E)
Time: 16:58:45
(UTC+00:00)

Cosmos 1892 Rocket - Pass Details

Date: 24 January 2021
Orbit: 607 x 632 km, 82.5° (Epoch: 01 March)

Event Time Altitude Azimuth Distance (km) Brightness Sun altitude
Rises 16:25:10 0° 198° (SSW) 2,858 7.5 -10.9°
Reaches altitude 10° 16:27:25 10° 203° (SSW) 1,957 6.7 -11.3°
Maximum altitude 16:31:40 57° 282° (WNW) 723 4.2 -12.0°
Drops below altitude 10° 16:35:57 10° 1° (N) 1,969 6.0 -12.7°
Sets 16:38:13 0° 6° (N) 2,878 6.8 -13.1°
